Tracking 29487 objects as of 10-Sep-2024
HD Live streaming from Space Station
objects crossing your sky now

SL-12 R/B(AUX MOTOR)

Track SL-12 R/B(AUX MOTOR) now!
10-day predictions


NORAD ID: 14607
Int'l Code: 1983-127G
Perigee: 369.9 km
Apogee: 17,441.7 km
Inclination: 52.0 °
Period: 313.2 minutes
Semi major axis: 15276 km
RCS: 1.0446 m2 (large)
Launch date: December 29, 1983
Source: Commonwealth of Independent States (former USSR) (CIS)
Launch site: TYURATAM MISSILE AND SPACE COMPLEX (TTMTR)

Note: This is a ROCKET BODY
Your satellite tracking list
Your tracking list is empty




NASA's NSSDC Master Catalog

Two Line Element Set (TLE):
1 14607U 83127G   24253.83988579  .00005927  00000-0  30702-2 0  9999
2 14607  51.9759 108.1273 5587485 131.5433 292.1297  4.59783683661435
Source of the keplerian elements: AFSPC